This is the latest recevied weather packets stored in our database for station/object F4HUO-10. If no packets are shown the sender has not sent any weather packets the latest 10 day(s).
| Time | Temp. | Humidity | Pressure | Rain* | Wind** | Luminosity | Snow |
|---|---|---|---|---|---|---|---|
| 1777838854 | 21.67° C | 56% | 1000.5 hPa | - | - | - | - |
| 1777835253 | 20.56° C | 56% | 1000.2 hPa | - | - | - | - |
| 1777831652 | 21.67° C | 57% | 999.6 hPa | - | - | - | - |
| 1777828050 | 21.67° C | 58% | 999.5 hPa | - | - | - | - |
| 1777824457 | 21.11° C | 54% | 999.7 hPa | - | - | - | - |
| 1777820856 | 21.11° C | 56% | 999.8 hPa | - | - | - | - |
| 1777817254 | 20.56° C | 58% | 1000.3 hPa | - | - | - | - |
| 1777813653 | 21.11° C | 55% | 1000.4 hPa | - | - | - | - |
| 1777810052 | 21.11° C | 56% | 1000.7 hPa | - | - | - | - |
| 1777806450 | 20.56° C | 56% | 1001.1 hPa | - | - | - | - |
| 1777802856 | 20.56° C | 56% | 1001.4 hPa | - | - | - | - |
| 1777799255 | 21.11° C | 53% | 1001.4 hPa | - | - | - | - |
| 1777795654 | 21.11° C | 53% | 1001.5 hPa | - | - | - | - |
| 1777792052 | 21.67° C | 52% | 1001.3 hPa | - | - | - | - |
| 1777788451 | 21.67° C | 53% | 1001.2 hPa | - | - | - | - |
| 1777784849 | 21.11° C | 53% | 1001.1 hPa | - | - | - | - |
| 1777781256 | 21.11° C | 52% | 1001.1 hPa | - | - | - | - |
| 1777777655 | 21.67° C | 52% | 1001.1 hPa | - | - | - | - |
| 1777774053 | 21.11° C | 52% | 1001.5 hPa | - | - | - | - |
| 1777770452 | 21.67° C | 51% | 1001.5 hPa | - | - | - | - |
| 1777766850 | 21.67° C | 51% | 1002.1 hPa | - | - | - | - |
| 1777763249 | 21.67° C | 51% | 1002.4 hPa | - | - | - | - |
| 1777759655 | 21.67° C | 51% | 1002.4 hPa | - | - | - | - |
| 1777756054 | 21.67° C | 51% | 1002.6 hPa | - | - | - | - |
| 1777752452 | 21.67° C | 51% | 1002.7 hPa | - | - | - | - |
* Rain since midnight (hover to see other rain measurements)
** Current wind speed in m/s (hover to see current wind gust speed)